SB KEPS @ AMSAT $ORB26150.1 2Line Orbital Elements 26150.AMSAT QST de W1STR AMSAT Orbital Elements for Amateur Satellites in TLE Format From Orbital Analysis Office New England Sci-Tech STEM Education Center Natick MA May 30, 2026 To all radio amateurs These element sets describe the orbits of various satellites in use by the amateur radio community. For details see: www.amsat.org/keplerian-elements-formats/ A daily update of element sets is available at: www.amsat.org/tle/daily-bulletin.txt or without bulletin text: www.amsat.org/tle/dailytle.txt AO-07 1 07530U 74089B 26150.02056965 -.00000031 00000-0 97780-4 0 9990 2 07530 101.9903 163.0776 0012386 164.1537 219.7720 12.53697801358249 UO-11 1 14781U 84021B 26149.83014364 .00001415 00000-0 14978-3 0 9990 2 14781 97.8048 115.6119 0006176 239.0955 120.9657 14.90732983254395 AO-27 1 22825U 93061C 26150.09932847 .00000136 00000-0 68780-4 0 9997 2 22825 98.6885 217.5186 0009027 147.3678 212.8064 14.30936759704415 FO-29 1 24278U 96046B 26150.04903780 -.00000012 00000-0 21029-4 0 9995 2 24278 98.5257 1.4045 0350482 143.3879 219.1773 13.53273460470715 GO-32 1 25397U 98043D 26149.94167435 .00000075 00000-0 52762-4 0 9999 2 25397 99.0063 142.2408 0000223 276.6838 83.4314 14.24424463448736 ISS 1 25544U 98067A 26150.13051462 .00013825 00000-0 25414-3 0 9994 2 25544 51.6337 29.4904 0007252 113.3793 246.7959 15.49488485568959 NO-44 1 26931U 01043C 26149.78993453 .00000162 00000-0 91528-4 0 9997 2 26931 67.0511 291.8546 0006141 263.9055 96.1347 14.31948346287819 SO-50 1 27607U 02058C 26150.08318950 .00001204 00000-0 15896-3 0 9994 2 27607 64.5508 184.9974 0075565 265.7847 93.4621 14.83003638261775 CO-55 1 27844U 03031E 26148.99988317 .00000334 00000-0 16336-3 0 9999 2 27844 98.6738 157.8003 0008466 237.2714 122.7649 14.24322409188944 RS-22 1 27939U 03042A 26150.22657396 .00001183 00000-0 19055-3 0 9999 2 27939 98.3465 334.0789 0010635 332.0252 143.2762 14.73431107212903 CO-65 1 32785U 08021C 26150.15035413 .00007551 00000-0 47770-3 0 9998 2 32785 97.8266 131.1974 0010749 90.7745 269.4714 15.09259915982473 CO-66 1 32791U 08021J 26149.52559085 .00021952 00000-0 71111-3 0 9997 2 32791 97.7513 146.5426 0003683 52.1116 308.0457 15.32031065984431 RS-30 1 32953U 08025A 26150.15185810 .00000069 00000-0 42312-3 0 9990 2 32953 82.5058 6.6611 0019627 354.0041 6.0801 12.43178668817450 SRMSAT 1 37841U 11058D 26150.19586354 .00000414 00000-0 80696-4 0 9995 2 37841 19.9700 168.3684 0011788 7.2397 59.9919 14.11571467755275 ZACUBE-1 1 39417U 13066B 26149.87635523 .00006095 00000-0 47377-3 0 9992 2 39417 97.8104 112.1137 0040054 312.6872 47.0980 15.01042051677987 Delfi-N3xt 1 39428U 13066N 26149.70470310 .00008700 00000-0 76216-3 0 9996 2 39428 97.8344 70.0357 0073150 268.3713 90.9127 14.94861508671863 GOMX-1 1 39430U 13066Q 26150.14066547 .00003253 00000-0 49088-3 0 9997 2 39430 97.6494 351.7429 0129754 134.9707 226.2107 14.69381654667264 LO-74 1 39440U 13066AA 26149.84200471 .00004747 00000-0 44020-3 0 9999 2 39440 97.8896 98.7464 0059336 88.2774 272.5240 14.93594351674259 AO-73 1 39444U 13066AE 26150.15708831 .00009509 00000-0 59328-3 0 9990 2 39444 97.8261 121.2308 0034499 264.8610 94.8680 15.09238956676947 DTUSAT-2 1 40030U 14033W 26149.94138978 .00010159 00000-0 55128-3 0 9999 2 40030 98.0855 146.5141 0006373 304.1878 55.8747 15.14751873649924 LILACSAT-2 1 40908U 15049K 26150.14466149 .00023012 00000-0 40022-3 0 9998 2 40908 97.4664 186.3071 0005708 332.1963 27.8983 15.50788718592959 Horyu-4 1 41340U 16012D 26149.28564465 .00259921 00000-0 10929-2 0 9995 2 41340 30.9863 216.5210 0002593 151.8480 208.2319 15.83702095567807 Lapan A3 1 41603U 16040E 26150.24135735 .00004300 00000-0 13706-3 0 9996 2 41603 97.1480 146.9790 0012205 82.0652 278.1975 15.32978828552064 CAS-2T 1 41847U 16066G 26149.74735532 .00001869 00000-0 27053-3 0 9995 2 41847 98.3824 225.6933 0341948 185.3265 174.4253 14.44628721502135 TechnoSat 1 42829U 17042E 26149.89759508 .00004360 00000-0 31160-3 0 9999 2 42829 97.4268 308.2561 0018685 151.3059 208.9200 15.04835961483952 AO-91 1 43017U 17073E 26149.61868316 .00012445 00000-0 54221-3 0 9997 2 43017 97.4739 17.2170 0152585 33.3983 327.6759 15.12348750462589 S-Net D 1 43186U 18014G 26150.18557435 .00006937 00000-0 35924-3 0 9999 2 43186 97.5385 55.0900 0010083 82.9037 277.3343 15.16481205456031 S-Net B 1 43187U 18014H 26149.73477932 .00007198 00000-0 37295-3 0 9995 2 43187 97.5393 54.6280 0010738 80.5643 279.6803 15.16445094455964 S-Net A 1 43188U 18014J 26150.18454631 .00006931 00000-0 35881-3 0 9991 2 43188 97.5401 55.2804 0010633 79.6601 280.5829 15.16488585456031 S-Net C 1 43189U 18014K 26149.73856015 .00007277 00000-0 37697-3 0 9994 2 43189 97.5418 54.9089 0011926 74.5846 285.6703 15.16436372454517 Ten-Koh 1 43677U 18084G 26150.01415019 .00003841 00000-0 29134-3 0 9991 2 43677 98.0761 341.6113 0009677 175.2418 184.8900 15.02847271413438 PO-101 1 43678U 18084H 26150.16364208 .00003147 00000-0 25563-3 0 9992 2 43678 98.1143 345.5938 0011734 230.7958 129.2223 15.00355396413515 QO-100 1 43700U 18090A 26150.15174416 .00000156 00000-0 00000+0 0 9996 2 43700 0.0174 314.1079 0001762 139.3705 234.6168 1.00270249 27494 MinXSS-2 1 43758U 18099A 26150.10137294 .00049192 00000-0 10190-2 0 9993 2 43758 97.4547 225.8731 0006114 335.1300 24.9654 15.45587583411333 AO-95 1 43770U 18099N 26150.11673980 .00016325 00000-0 63088-3 0 9992 2 43770 97.4397 210.4339 0009792 59.6331 300.5875 15.26275584410466 SNUSat 2 1 43782U 18099AA 26150.11833150 .00011066 00000-0 49343-3 0 9997 2 43782 97.4069 203.7825 0010107 9.2714 350.8707 15.21531678410284 SnugLite 1 43784U 18099AC 26150.12261428 .00015344 00000-0 58576-3 0 9994 2 43784 97.3883 204.5845 0002776 28.5356 331.6035 15.26736761410566 ITASat 1 1 43786U 18099AE 26150.03711525 .00010086 00000-0 48660-3 0 9995 2 43786 97.4039 201.9128 0013882 61.0172 299.2452 15.18794900410152 EAGLET 1 1 43790U 18099AJ 26150.06232597 .00005427 00000-0 31234-3 0 9992 2 43790 97.4244 200.2118 0012441 54.7398 305.4996 15.12784320409593 ESEO 1 43792U 18099AL 26149.95337628 .00001540 00000-0 11494-3 0 9999 2 43792 97.3984 188.1230 0013348 42.9110 317.3156 15.04184414409063 JO-97 1 43803U 18099AX 26150.14963961 .00022375 00000-0 70257-3 0 9991 2 43803 97.4140 212.9285 0004668 349.6611 10.4534 15.33015809410869 Suomi 100 1 43804U 18099AY 26150.13424736 .00016656 00000-0 61181-3 0 9994 2 43804 97.4201 210.5989 0009263 353.0207 7.0902 15.27958700410667 ISAT 1 43879U 18111D 26149.79548938 .00106745 00000-0 12167-2 0 9990 2 43879 97.5901 83.6488 0004949 53.7543 306.4171 15.61877787408296 UWE-4 1 43880U 18111E 26149.76286997 .00043885 00000-0 93193-3 0 9997 2 43880 97.5865 77.3215 0009063 46.1728 314.0267 15.44858582407932 Sparrow 1 43881U 18111F 26149.79610877 .00153565 00000-0 13040-2 0 9998 2 43881 97.6128 88.9645 0006039 92.6712 267.5241 15.69139299408489 Prox-1 1 44339U 19036A 26149.64541373 .00015964 00000-0 15802-2 0 9990 2 44339 23.9950 238.0690 0006068 171.3247 188.7357 14.90121918370708 Taurus 1 1 44530U 19059C 26150.22936971 .00008104 00000-0 13017-2 0 9990 2 44530 98.6399 313.9474 0008399 17.5653 342.5841 14.71878275356000 TO-108 1 44881U 19093C 26150.13939984 .00000876 00000-0 10497-3 0 9992 2 44881 97.7537 222.8112 0014438 141.8125 218.4117 14.86483750348730 RS-44 1 44909U 19096E 26150.02340725 .00000036 00000-0 10006-3 0 9997 2 44909 82.5222 351.7776 0217340 186.5784 173.2455 12.79748520300028 SALSAT 1 46495U 20068K 26149.76373932 .00009782 00000-0 34443-3 0 9993 2 46495 97.8846 151.7113 0010040 18.2992 341.8607 15.29494640312545 CSS (TIANHE-1) 1 48274U 21035A 26150.18439889 .00029736 00000-0 35922-3 0 9991 2 48274 41.4692 71.4980 0010638 307.4359 52.5511 15.60008202290353 CUTE 1 49263U 21088D 26149.74579635 .00391195 00000-0 16287-2 0 9995 2 49263 97.4190 247.3495 0005298 264.7533 95.3133 15.84715830259624 TeikyoSat 4 1 49396U 21102B 26150.02346110 .00002909 00000-0 18540-3 0 9999 2 49396 97.3677 180.2130 0011987 4.0995 356.0331 15.09436896249984 Z-Sat 1 49399U 21102E 26150.13870102 .00005691 00000-0 28146-3 0 9991 2 49399 97.3339 186.0104 0015089 314.7482 45.2523 15.18113380250708 KOSEN 1 1 49402U 21102H 26150.05182596 .00010805 00000-0 41498-3 0 9998 2 49402 97.3198 192.5638 0011922 271.0320 88.9553 15.26555801251253 HO-113 1 50466U 21131B 26150.21377010 .00000733 00000-0 24011-3 0 9998 2 50466 98.4975 242.7013 0004943 139.9468 220.2086 14.41338873232520 SNUGLITE 2 1 52899U 22065F 26149.37660386 .00001200 00000-0 23652-3 0 9993 2 52899 98.2177 294.2435 0008774 84.9622 275.2582 14.64307095208241 UmKA 1 (RS40S) 1 57172U 23091G 26150.13028587 .00008193 00000-0 37627-3 0 9994 2 57172 97.5063 208.8988 0013052 175.6979 184.4371 15.20582756161267 CubeBel-2 (EU11S) 1 57175U 23091K 26150.12034661 .00017816 00000-0 63985-3 0 9994 2 57175 97.5064 213.1811 0010475 170.9409 189.2022 15.28673817161541 RS-38S 1 57189U 23091Z 26150.16405353 .00023045 00000-0 67088-3 0 9992 2 57189 97.5104 219.2959 0008710 130.9257 229.2742 15.35384288161922 SONATE-2 1 59112U 24043Q 26149.38395000 .00045786 00000-0 62823-3 0 9995 2 59112 97.5509 298.6503 0006031 263.0916 96.9652 15.57197917124966 GRBBeta 1 60237U 24128C 26149.83520928 .00006567 00000-0 44749-3 0 9999 2 60237 61.9907 280.6469 0043125 130.8895 229.5946 15.06479403103501 Curium One 1 60242U 24128H 26149.92203511 .00012592 00000-0 72132-3 0 9993 2 60242 61.9793 270.4527 0042364 127.1889 233.3085 15.12206607103696 ROBUSTA-3A 1 60243U 24128J 26149.61212077 .00011721 00000-0 68732-3 0 9991 2 60243 61.9870 273.9187 0043805 124.6534 235.8703 15.11367457103619 CatSat 1 60246U 24125J 26150.02258551 .00069425 00000-0 96726-3 0 9993 2 60246 97.2102 2.3159 0021406 245.8268 114.0750 15.56432339104564 HYPERVIEW-1G (RS66S) 1 61772U 24199AP 26150.12878963 .00137025 00000-0 10743-2 0 9991 2 61772 97.2913 28.9970 0003401 3.6927 356.4360 15.71137998131830 AO-123 1 61781U 24199AY 26150.11405360 .00010576 00000-0 30894-3 0 9998 2 61781 97.3026 18.9498 0014367 21.2118 338.9719 15.35383275131150 JINJUSat 1B 1 63210U 25052A 26149.93701760 .00022342 00000-0 70483-3 0 9999 2 63210 97.4032 46.6748 0004787 129.8462 230.3202 15.32865403 67307 NUSHSAT 1 1 63211U 25052B 26149.94398292 .00027451 00000-0 80423-3 0 9994 2 63211 97.4011 47.1864 0004596 129.5210 230.6441 15.35174050 67342 TEVEL2-4 1 63213U 25052D 26149.65981025 .00024157 00000-0 73793-3 0 9998 2 63213 97.3939 46.0285 0003623 137.7072 222.4450 15.33880799 67277 TEVEL2-5 1 63214U 25052E 26149.67828913 .00022527 00000-0 69201-3 0 9995 2 63214 97.3927 46.0000 0003544 139.1674 220.9835 15.33717127 67270 TEVEL2-6 1 63215U 25052F 26150.14688440 .00025530 00000-0 78387-3 0 9991 2 63215 97.3932 46.4530 0003775 138.8027 221.3501 15.33706307 67344 TEVEL2-1 1 63217U 25052H 26149.64766979 .00021571 00000-0 67430-3 0 9998 2 63217 97.3905 45.6003 0003273 147.4885 212.6560 15.33171739 67256 TEVEL2-3 1 63218U 25052J 26149.70821898 .00024122 00000-0 75214-3 0 9992 2 63218 97.3910 45.6804 0003347 149.1860 210.9579 15.33228588 67263 TEVEL2-2 1 63219U 25052K 26150.17020425 .00024760 00000-0 77240-3 0 9992 2 63219 97.3906 46.1243 0003347 149.0826 211.0614 15.33208567 67338 TEVEL2-9 1 63237U 25052AD 26149.66722300 .00020248 00000-0 67187-3 0 9991 2 63237 97.3970 45.0362 0005585 187.6550 172.4607 15.31258755 67195 TEVEL2-7 1 63238U 25052AE 26149.70467153 .00021649 00000-0 72414-3 0 9994 2 63238 97.3974 44.9969 0005785 188.1757 171.9391 15.30984706 67193 TEVEL2-8 1 63239U 25052AF 26150.17024481 .00022743 00000-0 76040-3 0 9996 2 63239 97.3974 45.4396 0005752 187.2393 172.8766 15.30989075 67262 SPIRONE 1 66657U 25274H 26149.76353459 .00003263 00000-0 31514-3 0 9995 2 66657 97.7486 79.3193 0013875 77.3304 282.9466 14.93461329 27472 K-HERO 1 66660U 25274L 26150.04121987 .00002339 00000-0 22498-3 0 9995 2 66660 97.7494 79.7408 0015649 79.9446 280.3539 14.93883835 27523 SNUGLITE-III DURI 1 66661U 25274M 26149.76161712 .00003026 00000-0 28904-3 0 9995 2 66661 97.7493 79.4850 0016372 81.9310 278.3767 14.93932769 27484 SAKHACUBE-CHOLBON 1 67290U 25313AU 26150.17824549 .00014193 00000-0 57838-3 0 9994 2 67290 97.3940 225.4418 0010454 65.7331 294.4998 15.24523324 23239 RS95S (QMR-KWT-2) 1 67291U 25313AV 26150.18219484 .00020165 00000-0 79009-3 0 9992 2 67291 97.3945 225.5858 0009981 65.1634 295.0641 15.25768544 23246 Ten-Koh2 1 68261U 25241B 26150.11146686 .00009123 00000-0 38851-3 0 9997 2 68261 51.6647 45.6403 0006603 89.4123 270.7612 15.23658557 12159 JACK-002 1 68417U 26067B 26149.85157313 .00009229 00000-0 44233-3 0 9993 2 68417 97.4555 108.6733 0002377 36.8090 323.3307 15.19134677 9167 DISCO 2 1 68431U 26067R 26150.13209753 .00011049 00000-0 53439-3 0 9999 2 68431 97.4591 108.9403 0004180 74.6379 285.5316 15.18764652 9209 HADES-SA (SpinnyONE) 1 68446U 26067AG 26149.83956923 .00025698 00000-0 12495-2 0 9999 2 68446 97.4401 108.4219 0008871 127.8390 232.3649 15.18362207 9142 PARUS-6U1 1 68456U 26067AS 26149.85615225 .00007192 00000-0 36391-3 0 9990 2 68456 97.4541 108.5058 0007324 118.7489 241.4481 15.17298508 9157 SAL-E 1 68458U 26067AU 26149.85405602 .00010074 00000-0 50584-3 0 9991 2 68458 97.4468 108.4523 0007504 125.8257 234.3675 15.17461289 9159 FSI-SAT 2 1 68792U 26088A 26149.89030036 .00006565 00000-0 44534-3 0 9992 2 68792 97.5044 299.6135 0014965 165.2697 194.8970 15.06664953 5535 OrigamiSat 2 1 68795U 26088D 26149.85443588 .00004493 00000-0 29332-3 0 9998 2 68795 97.5027 299.6692 0017318 138.2156 222.0399 15.08226839 5530 ARICA 2 1 68796U 26088E 26149.85172406 .00005621 00000-0 36570-3 0 9993 2 68796 97.5030 299.6600 0016814 138.2073 222.0443 15.08250502 5536 WASEDA-SAT-ZERO-II 1 68797U 26088F 26149.84966610 .00008584 00000-0 55396-3 0 9999 2 68797 97.5026 299.6620 0016640 138.1295 222.1209 15.08395999 5537 MANGARO-II-Piscus 1 68798U 26088G 26149.37802586 .00005522 00000-0 35529-3 0 9994 2 68798 97.5036 299.2227 0020091 142.9542 217.3078 15.08618020 5466 IO-86 1 40931U 25360.30710720 .00000000 00000-0 12800-3 0 00 2 40931 6.0006 332.5373 0012733 338.8432 8.1437 14.79075515 01 LILIUM-4 1 71922C 26067AC 26089.50133053 -.00014632 00000+0 -74472-3 0 04 2 71922 97.4497 49.1617 0004341 5.9603 355.7042 15.16896692 16 /EX